Flag for Norway Weather past 2 weeks in Larvik, Norway

39 °F

Passing clouds.

Feels Like: 31 °F
Forecast: 34 / 42 °F
Wind: 15 mph from Southwest

Location: Torp

Current Time: Nov 29, 2015 at 11:50:59 AM

Latest Report: Nov 29, 2015 at 11:20 AM

Visibility: N/A

Pressure: 28.97 "Hg

Humidity: 81%

Dew point: 34 °F

Location of LarvikLocation

Historic Weather in Larvik — Graph


Larvik temperature yesterday

Maximum temperature yesterday: 48 °F (at 12:50 AM)
Minimum temperature yesterday: 36 °F (at 6:20 PM)
Average temperature yesterday: 41 °F

Past Weeks' High & Low Weather Summary

High50 °F (Nov 16, 1:50 PM)100% (Nov 15, 10:50 PM)29.95 "Hg (Nov 15, 10:50 PM)
Low14 °F (Nov 23, 12:50 AM)64% (Nov 22, 4:20 PM)28.91 "Hg (Nov 29, 7:20 AM)
Average35 °F93%29.48 "Hg
* Reported Nov 14 10:20 AM — Nov 29 10:20 AM, Larvik, Weather by CustomWeather, © 2015

Note: Actual official high and low records may vary slightly from our data, if they occured in-between our weather recording intervals... More about our weather records


Larvik weather history for previous 24 hours

Time TempWeatherWind HumidityBarometerVisibility
10:20 AM
Sun, Nov 29
39 °FPassing clouds.15 mph93%28.97 "HgN/A
9:50 AM39 °FSunny.18 mph93%28.97 "Hg10 mi
9:20 AM39 °FBroken clouds.15 mph93%28.97 "HgN/A
8:50 AM39 °FDrizzle. Broken clouds.18 mph93%28.94 "HgN/A
7:50 AM41 °FLight rain. Passing clouds.14 mph93%28.91 "HgN/A
7:20 AM41 °FPassing clouds.13 mph100%28.91 "HgN/A
5:50 AM43 °FRain. Partly cloudy.16 mph93%28.94 "Hg5 mi
5:20 AM43 °FDrizzle. Mostly cloudy.16 mph100%28.94 "HgN/A
4:50 AM43 °FLight rain. Partly cloudy.31 mph100%28.97 "Hg2 mi
4:20 AM43 °FMostly cloudy.30 mph100%28.97 "Hg4 mi
3:50 AM43 °FDrizzle. Mostly cloudy.32 mph100%29.00 "Hg5 mi
3:20 AM43 °FPartly cloudy.30 mph93%29.03 "HgN/A
2:50 AM43 °FLight rain. Mostly cloudy.36 mph100%29.03 "Hg4 mi
2:20 AM43 °FDrizzle. Mostly cloudy.35 mph93%29.06 "HgN/A
1:50 AM43 °FDrizzle. Overcast.28 mph100%29.09 "Hg5 mi
12:50 AM43 °FDrizzle. Mostly cloudy.30 mph93%29.15 "Hg4 mi
12:20 AM43 °FMostly cloudy.28 mph93%29.15 "HgN/A
11:50 PM
Sat, Nov 28
43 °FPartly cloudy.26 mph93%29.18 "HgN/A
11:20 PM43 °FPassing clouds.21 mph87%29.21 "HgN/A
10:50 PM43 °FPassing clouds.20 mph87%29.24 "HgN/A
10:20 PM43 °FPassing clouds.17 mph81%29.24 "HgN/A
9:20 PM37 °FPassing clouds.10 mph100%29.27 "HgN/A
8:50 PM39 °FRain showers. Passing clouds.9 mph87%29.30 "Hg2 mi
8:20 PM36 °FClear.8 mph93%29.33 "Hg10 mi
7:50 PM37 °FClear.12 mph81%29.33 "Hg10 mi
7:20 PM37 °FClear.9 mph81%29.33 "Hg10 mi
6:50 PM36 °FClear.9 mph87%29.36 "Hg10 mi
6:20 PM36 °FClear.10 mph87%29.33 "Hg10 mi
5:50 PM37 °FClear.12 mph75%29.36 "Hg10 mi
5:20 PM37 °FClear.8 mph75%29.33 "Hg10 mi
4:50 PM37 °FClear.8 mph75%29.33 "Hg10 mi
4:20 PM37 °FClear.8 mph75%29.33 "Hg10 mi
3:50 PM37 °FClear.10 mph75%29.33 "Hg10 mi
3:20 PM39 °FSunny.10 mph70%29.33 "Hg10 mi
2:50 PM39 °FSunny.6 mph75%29.33 "Hg10 mi
2:20 PM41 °FPassing clouds.3 mph66%29.33 "HgN/A
1:50 PM41 °FPassing clouds.5 mph70%29.30 "HgN/A
1:20 PM41 °FSunny.6 mph70%29.30 "Hg10 mi
12:50 PM41 °FSunny.8 mph70%29.30 "Hg10 mi
12:20 PM39 °FSunny.7 mph81%29.30 "Hg10 mi
11:50 AM39 °FSunny.6 mph81%29.30 "Hg10 mi
11:20 AM39 °FPassing clouds.5 mph75%29.27 "HgN/A
Weather by CustomWeather, © 2015

See weather overviewHow to use our weather pages